FW1901 Weather Reports


Display with metric or nautical units.
time (UTC)temp
F
wind
direction
speed
MPH
gust
MPH
rain 1hr
in
rain 24hr
in
rain mn
in
humidity
%
barometer
mb
20260906064605 73 3 0.0 0.0 0.00 0.05 0.00 86 1013.4
20260906064106 74 3 0.0 0.0 0.00 0.05 0.00 86 1013.3
20260906063105 74 3 0.0 0.0 0.00 0.05 0.00 85 1013.4
20260906061605 74 3 0.0 0.0 0.00 0.05 0.00 85 1013.4
20260906060605 74 3 0.0 0.0 0.00 0.05 0.00 85 1013.3
20260906060105 74 3 0.0 0.0 0.00 0.05 0.00 85 1013.2
20260906054605 75 3 0.0 0.0 0.00 0.05 0.00 84 1013.1
20260906054105 75 3 0.0 0.0 0.00 0.05 0.00 84 1013.0
20260906051605 75 3 0.0 0.0 0.00 0.05 0.00 85 1013.0
20260906051105 75 3 0.0 0.0 0.00 0.05 0.00 85 1013.1
20260906050604 75 3 0.0 0.0 0.00 0.05 0.00 85 1013.1
20260906044604 75 3 0.0 0.0 0.00 0.05 0.00 85 1012.8
20260906044105 75 3 0.0 0.0 0.00 0.05 0.00 85 1012.7
20260906043605 75 3 0.0 0.0 0.00 0.05 0.00 85 1012.8
20260906043105 76 3 0.0 0.0 0.00 0.05 0.00 84 1012.7
20260906041605 76 3 0.0 0.0 0.00 0.05 0.00 83 1012.7
20260906041105 76 3 0.0 0.0 0.00 0.05 0.00 83 1012.7
20260906040605 76 3 0.0 0.0 0.00 0.05 0.00 83 1012.7
20260906040105 76 3 0.0 0.0 0.00 0.05 0.00 83 1012.7
20260906034605 77 3 0.0 0.0 0.00 0.05 0.05 84 1012.7
20260906034105 77 3 0.0 0.0 0.00 0.05 0.05 84 1012.6
20260906033105 77 3 0.0 0.0 0.00 0.05 0.05 84 1012.5
20260906031605 77 3 0.0 0.0 0.00 0.05 0.05 84 1012.4
20260906031105 77 3 0.0 0.0 0.00 0.05 0.05 84 1012.5
20260906024605 77 3 0.0 0.0 0.00 0.05 0.05 82 1012.3
20260906024104 78 3 0.0 0.0 0.00 0.05 0.05 82 1012.2
20260906023605 78 3 0.0 0.0 0.00 0.05 0.05 81 1012.1
20260906021605 77 3 0.0 0.0 0.00 0.05 0.05 82 1011.9
20260906021105 77 3 0.0 0.0 0.00 0.05 0.05 82 1011.8
20260906020105 78 3 0.0 0.0 0.00 0.05 0.05 83 1011.9
20260906014605 78 3 0.0 0.0 0.00 0.05 0.05 82 1011.7
20260906013605 78 3 0.0 0.0 0.00 0.05 0.05 82 1011.6
20260906013104 78 3 0.0 0.0 0.00 0.05 0.05 82 1011.5
20260906011604 78 3 0.0 0.0 0.00 0.05 0.05 82 1011.3
20260906011105 78 3 0.0 0.0 0.00 0.05 0.05 82 1011.4
20260906010605 78 3 0.0 0.0 0.00 0.05 0.05 82 1011.3
20260906010105 78 3 0.0 0.0 0.00 0.05 0.05 82 1011.3
20260906004604 78 3 0.0 0.0 0.00 0.05 0.05 82 1010.9
20260906003605 79 3 0.0 0.0 0.00 0.05 0.05 82 1010.7
20260906003105 79 3 0.0 0.0 0.00 0.05 0.05 82 1010.8
20260906001605 79 3 0.0 0.0 0.00 0.05 0.05 82 1010.7
20260906001105 79 6 0.0 0.0 0.00 0.05 0.05 82 1010.7
20260906000605 79 6 0.0 0.0 0.00 0.05 0.05 82 1010.6
20260906000105 80 5 0.0 0.0 0.00 0.05 0.05 82 1010.6
20260905234104 80 4 0.0 2.0 0.00 0.05 0.05 82 1010.8
20260905233605 80 4 1.0 2.0 0.00 0.05 0.05 82 1010.8
20260905233105 80 4 0.0 1.0 0.00 0.05 0.05 82 1010.7
20260905231105 81 4 0.0 2.0 0.00 0.05 0.05 81 1010.6
20260905230604 81 4 0.0 2.0 0.00 0.05 0.05 81 1010.5
20260905230105 81 4 0.0 3.0 0.00 0.05 0.05 81 1010.4
20260905224605 81 2 0.0 3.0 0.00 0.05 0.05 81 1010.4
20260905224104 81 2 1.0 3.0 0.01 0.05 0.05 81 1010.4
20260905223604 81 326 1.0 3.0 0.01 0.05 0.05 81 1010.4
20260905223104 80 326 1.0 3.0 0.03 0.05 0.05 81 1010.4
20260905221605 79 325 0.0 7.0 0.05 0.05 0.05 82 1010.7
20260905221105 79 301 0.0 7.0 0.05 0.05 0.05 82 1010.6
20260905220604 79 285 4.0 7.0 0.05 0.05 0.05 82 1010.7
20260905220104 79 292 2.0 5.0 0.05 0.05 0.05 82 1010.5
20260905214604 82 268 1.0 9.0 0.05 0.05 0.05 79 1010.4
20260905214105 84 287 4.0 9.0 0.04 0.04 0.04 76 1010.7
20260905213604 86 29 1.0 14.0 0.04 0.04 0.04 75 1010.8
20260905213105 88 357 5.0 14.0 0.02 0.02 0.02 73 1011.1
20260905211104 90 326 1.0 3.0 0.00 0.00 0.00 62 1010.3
20260905210605 90 356 1.0 3.0 0.00 0.00 0.00 62 1010.3
20260905204604 93 291 3.0 10.0 0.00 0.00 0.00 56 1010.4
20260905204104 94 292 5.0 10.0 0.00 0.00 0.00 55 1010.6
20260905203104 95 288 3.0 8.0 0.00 0.00 0.00 54 1010.6
20260905201604 93 358 1.0 7.0 0.00 0.00 0.00 59 1010.9
20260905200605 92 286 3.0 9.0 0.00 0.00 0.00 57 1010.9
20260905200104 92 285 5.0 9.0 0.00 0.00 0.00 56 1010.8
20260905194604 91 295 2.0 8.0 0.00 0.00 0.00 59 1010.9
20260905194104 91 25 3.0 9.0 0.00 0.00 0.00 58 1011.0
20260905193604 92 283 3.0 9.0 0.00 0.00 0.00 58 1011.2
20260905193104 92 339 3.0 7.0 0.00 0.00 0.00 57 1011.2
20260905191105 92 271 4.0 8.0 0.00 0.00 0.00 57 1011.3
20260905190604 92 203 3.0 7.0 0.00 0.00 0.00 58 1011.4
20260905190104 92 235 3.0 7.0 0.00 0.00 0.00 57 1011.5
20260905184605 91 262 1.0 3.0 0.00 0.00 0.00 58 1011.7
20260905184104 91 276 1.0 3.0 0.00 0.00 0.00 57 1011.9
20260905183605 91 270 2.0 3.0 0.00 0.00 0.00 57 1012.0
20260905183104 90 299 1.0 7.0 0.00 0.00 0.00 59 1012.0
20260905181604 90 212 2.0 6.0 0.00 0.00 0.00 60 1012.1
20260905181105 90 275 2.0 6.0 0.00 0.00 0.00 58 1012.2
20260905180604 90 212 2.0 7.0 0.00 0.00 0.00 58 1012.2
20260905180105 89 298 2.0 8.0 0.00 0.00 0.00 59 1012.3
20260905174605 89 299 3.0 9.0 0.00 0.00 0.00 58 1012.4
20260905174105 89 267 3.0 7.0 0.00 0.00 0.00 59 1012.5
20260905173604 89 225 2.0 6.0 0.00 0.00 0.00 59 1012.5
20260905173104 88 259 1.0 6.0 0.00 0.00 0.00 59 1012.5
20260905171604 89 3 0.0 0.0 0.00 0.00 0.00 56 1012.7
20260905171104 89 3 0.0 0.0 0.00 0.00 0.00 57 1012.8
20260905170604 89 3 0.0 0.0 0.00 0.00 0.00 57 1012.9
20260905164604 88 3 0.0 0.0 0.00 0.00 0.00 57 1013.0
20260905164104 88 3 0.0 0.0 0.00 0.00 0.00 57 1013.0
20260905163604 88 3 0.0 0.0 0.00 0.00 0.00 58 1013.1
20260905163105 87 3 0.0 0.0 0.00 0.00 0.00 58 1013.2
20260905161604 87 3 0.0 0.0 0.00 0.00 0.00 59 1013.2
20260905161104 86 3 0.0 0.0 0.00 0.00 0.00 59 1013.2
20260905160604 86 3 0.0 0.0 0.00 0.00 0.00 58 1013.1
20260905154604 85 3 0.0 0.0 0.00 0.00 0.00 62 1013.1
20260905154104 85 3 0.0 0.0 0.00 0.00 0.00 61 1013.0
20260905151604 83 3 0.0 0.0 0.00 0.00 0.00 63 1013.5
20260905151104 83 3 0.0 0.0 0.00 0.00 0.00 64 1013.4
20260905150604 82 3 0.0 0.0 0.00 0.00 0.00 65 1013.4
20260905150104 82 3 0.0 0.0 0.00 0.00 0.00 65 1013.5
20260905144604 81 3 0.0 0.0 0.00 0.00 0.00 65 1013.4
20260905143604 80 3 0.0 0.0 0.00 0.00 0.00 68 1013.5
20260905143104 79 3 0.0 0.0 0.00 0.00 0.00 69 1013.5
20260905141604 77 3 0.0 0.0 0.00 0.00 0.00 70 1013.5
20260905141103 77 3 0.0 0.0 0.00 0.00 0.00 71 1013.6
20260905140604 77 3 0.0 0.0 0.00 0.00 0.00 72 1013.7
20260905134103 76 3 0.0 0.0 0.00 0.00 0.00 74 1013.6
20260905133604 75 3 0.0 0.0 0.00 0.00 0.00 74 1013.7
20260905133105 75 3 0.0 0.0 0.00 0.00 0.00 74 1013.6
20260905131603 75 3 0.0 0.0 0.00 0.00 0.00 76 1013.7
20260905131103 75 3 0.0 0.0 0.00 0.00 0.00 77 1013.7
20260905130104 74 3 0.0 0.0 0.00 0.00 0.00 76 1013.7
20260905124604 74 3 0.0 0.0 0.00 0.00 0.00 77 1013.8
20260905124104 74 3 0.0 0.0 0.00 0.00 0.00 77 1013.8
20260905123604 74 3 0.0 0.0 0.00 0.00 0.00 77 1013.8
20260905123104 74 3 0.0 0.0 0.00 0.00 0.00 78 1013.8
20260905121604 74 3 0.0 0.0 0.00 0.00 0.00 78 1013.8
20260905121103 74 3 0.0 0.0 0.00 0.00 0.00 78 1013.7
20260905120604 74 3 0.0 0.0 0.00 0.00 0.00 78 1013.6
20260905120104 75 3 0.0 0.0 0.00 0.00 0.00 78 1013.5
20260905114604 75 2 0.0 0.0 0.00 0.00 0.00 80 1013.4
20260905113603 76 3 0.0 0.0 0.00 0.00 0.00 83 1013.2
20260905113104 75 3 0.0 0.0 0.00 0.00 0.00 82 1013.0
20260905111104 75 3 0.0 0.0 0.00 0.00 0.00 82 1012.2
20260905110603 75 3 0.0 0.0 0.00 0.00 0.00 82 1012.2
20260905110104 75 3 0.0 0.0 0.00 0.00 0.00 82 1012.1
20260905104603 75 3 0.0 0.0 0.00 0.00 0.00 82 1012.0
20260905104104 75 3 0.0 0.0 0.00 0.00 0.00 83 1012.0
20260905103603 76 3 0.0 0.0 0.00 0.00 0.00 83 1012.0
20260905103104 76 3 0.0 0.0 0.00 0.00 0.00 83 1012.1
20260905101606 76 3 0.0 0.0 0.00 0.00 0.00 83 1011.9
20260905101106 76 3 0.0 0.0 0.00 0.00 0.00 83 1011.9
20260905100605 76 3 0.0 0.0 0.00 0.00 0.00 83 1011.9
20260905100105 76 3 0.0 0.0 0.00 0.00 0.00 83 1011.8
20260905093605 76 3 0.0 0.0 0.00 0.00 0.00 83 1012.0
20260905093105 76 3 0.0 0.0 0.00 0.00 0.00 82 1012.0
20260905091605 76 3 0.0 0.0 0.00 0.00 0.00 82 1012.0
20260905091105 76 3 0.0 0.0 0.00 0.00 0.00 83 1012.0
20260905090605 76 3 0.0 0.0 0.00 0.00 0.00 83 1012.0
20260905090106 76 3 0.0 0.0 0.00 0.00 0.00 82 1012.0
20260905084105 76 3 0.0 0.0 0.00 0.00 0.00 83 1011.8
20260905083606 76 3 0.0 0.0 0.00 0.00 0.00 83 1011.8
20260905083105 76 3 0.0 0.0 0.00 0.00 0.00 83 1011.8
20260905081605 76 3 0.0 0.0 0.00 0.00 0.00 83 1011.5
20260905081106 76 2 0.0 0.0 0.00 0.00 0.00 83 1011.5
20260905080605 76 297 0.0 1.0 0.00 0.00 0.00 83 1011.4
20260905080105 76 297 0.0 1.0 0.00 0.00 0.00 83 1011.5
20260905074605 77 297 0.0 1.0 0.00 0.00 0.00 82 1011.4
20260905074106 76 297 0.0 2.0 0.00 0.00 0.00 82 1011.3
20260905073605 76 297 0.0 2.0 0.00 0.00 0.00 82 1011.3
20260905073105 76 296 0.0 0.0 0.00 0.00 0.00 82 1011.2
20260905071605 76 296 0.0 0.0 0.00 0.00 0.00 81 1011.3
20260905071105 76 296 0.0 0.0 0.00 0.00 0.00 81 1011.3
20260905070606 76 296 0.0 0.0 0.00 0.00 0.00 81 1011.4